KB1GNF Weather Reports


Display with metric or nautical units.
time (UTC)temp
F
wind
direction
speed
MPH
gust
MPH
rain 1hr
in
rain 24hr
in
rain mn
in
humidity
%
barometer
mb
20260507134004 54 288 3.0 10.0 0.00 0.35 0.00 57 1009.1
20260507133504 54 338 2.0 7.0 0.00 0.35 0.00 59 1009.1
20260507132508 54 137 1.0 9.0 0.00 0.35 0.00 59 1009.2
20260507132009 53 335 2.0 9.0 0.00 0.35 0.00 55 1009.3
20260507131516 54 248 4.0 8.0 0.00 0.35 0.00 57 1009.3
20260507131004 53 20 1.0 10.0 0.00 0.35 0.00 58 1009.3
20260507130505 53 326 2.0 10.0 0.00 0.35 0.00 60 1009.2
20260507130024 53 278 3.0 9.0 0.00 0.35 0.00 56 1009.2
20260507125509 54 257 2.0 10.0 0.00 0.35 0.00 61 1009.3
20260507125011 53 304 2.0 10.0 0.00 0.35 0.00 60 1009.3
20260507124003 53 342 2.0 7.0 0.00 0.35 0.00 63 1009.3
20260507123504 53 322 3.0 10.0 0.00 0.35 0.00 64 1009.3
20260507122504 53 342 0.0 7.0 0.00 0.35 0.00 67 1009.3
20260507122006 53 343 1.0 7.0 0.00 0.35 0.00 68 1009.2
20260507121510 53 239 2.0 7.0 0.00 0.35 0.00 68 1009.2
20260507121005 52 235 1.0 7.0 0.00 0.35 0.00 70 1009.2
20260507120505 52 173 1.0 7.0 0.00 0.35 0.00 70 1009.0
20260507120035 53 358 2.0 6.0 0.00 0.35 0.00 70 1009.0
20260507115507 52 291 2.0 6.0 0.00 0.35 0.00 72 1008.9
20260507115008 52 276 0.0 6.0 0.00 0.35 0.00 74 1008.9
20260507114519 52 304 0.0 12.0 0.00 0.35 0.00 74 1008.8
20260507114009 51 204 3.0 12.0 0.00 0.35 0.00 75 1008.8
20260507113513 50 297 3.0 5.0 0.00 0.35 0.00 77 1008.8
20260507113038 50 210 1.0 3.0 0.00 0.35 0.00 81 1008.8
20260507112510 49 277 0.0 2.0 0.00 0.35 0.00 84 1008.8
20260507112007 48 234 0.0 1.0 0.00 0.35 0.00 90 1008.8
20260507111509 47 255 0.0 0.0 0.00 0.35 0.00 91 1008.7
20260507111005 47 321 0.0 2.0 0.00 0.35 0.00 90 1008.6
20260507110505 47 259 1.0 2.0 0.00 0.35 0.00 88 1008.5
20260507110012 48 2 0.0 1.0 0.00 0.35 0.00 88 1008.6
20260507105503 48 169 0.0 3.0 0.00 0.35 0.00 87 1008.5
20260507105005 48 105 0.0 3.0 0.00 0.35 0.00 88 1008.4
20260507104517 49 155 0.0 2.0 0.00 0.35 0.00 90 1008.5
20260507104008 48 188 0.0 0.0 0.00 0.35 0.00 92 1008.4
20260507103508 47 224 0.0 0.0 0.00 0.35 0.00 92 1008.5
20260507103021 47 225 0.0 0.0 0.00 0.35 0.00 92 1008.4
20260507102509 46 163 0.0 0.0 0.00 0.35 0.00 93 1008.2
20260507102008 45 240 0.0 0.0 0.00 0.35 0.00 93 1008.1
20260507101527 45 355 0.0 0.0 0.00 0.35 0.00 93 1007.9
20260507101005 45 355 0.0 0.0 0.00 0.35 0.00 92 1007.9
20260507100504 45 355 0.0 0.0 0.00 0.35 0.00 92 1007.8
20260507100010 45 241 0.0 1.0 0.00 0.35 0.00 91 1007.8
20260507095505 45 241 0.0 1.0 0.00 0.35 0.00 90 1008.0
20260507095006 46 330 0.0 1.0 0.00 0.35 0.00 89 1008.0
20260507094513 46 330 0.0 4.0 0.00 0.35 0.00 90 1008.0
20260507094006 45 315 1.0 4.0 0.00 0.35 0.00 91 1007.9
20260507093507 46 337 0.0 0.0 0.00 0.35 0.00 91 1008.1
20260507093019 46 342 0.0 0.0 0.00 0.35 0.00 90 1008.1
20260507092507 46 302 0.0 0.0 0.00 0.35 0.00 91 1008.3
20260507092007 46 354 0.0 0.0 0.00 0.35 0.00 91 1008.3
20260507091525 47 1 0.0 0.0 0.00 0.35 0.00 91 1008.0
20260507091008 47 8 0.0 0.0 0.00 0.35 0.00 90 1008.2
20260507090510 47 337 0.0 0.0 0.00 0.35 0.00 91 1008.4
20260507090024 47 272 0.0 0.0 0.00 0.35 0.00 92 1008.3
20260507085509 47 309 0.0 0.0 0.00 0.35 0.00 93 1008.4
20260507085005 47 217 0.0 0.0 0.00 0.35 0.00 94 1008.3
20260507084512 47 228 0.0 0.0 0.00 0.35 0.00 95 1008.4
20260507084006 47 228 0.0 0.0 0.00 0.35 0.00 95 1008.6
20260507083505 47 199 0.0 0.0 0.00 0.35 0.00 95 1008.5
20260507083016 47 238 0.0 0.0 0.00 0.35 0.00 95 1008.7
20260507082512 47 231 0.0 0.0 0.00 0.35 0.00 95 1008.5
20260507082009 47 217 0.0 0.0 0.00 0.35 0.00 95 1008.5
20260507081518 47 201 0.0 0.0 0.00 0.35 0.00 95 1008.3
20260507081008 47 201 0.0 0.0 0.00 0.35 0.00 95 1008.3
20260507080508 47 200 0.0 0.0 0.00 0.35 0.00 95 1008.4
20260507080023 47 206 0.0 0.0 0.00 0.35 0.00 95 1008.3
20260507075509 47 206 0.0 0.0 0.00 0.35 0.00 95 1008.1
20260507075011 47 206 0.0 0.0 0.00 0.35 0.00 95 1008.2
20260507074531 47 206 0.0 0.0 0.00 0.35 0.00 95 1008.1
20260507074008 47 206 0.0 0.0 0.00 0.35 0.00 94 1008.0
20260507073504 47 206 0.0 0.0 0.00 0.35 0.00 94 1007.8
20260507073013 47 206 0.0 0.0 0.00 0.35 0.00 94 1007.9
20260507072506 47 206 0.0 0.0 0.00 0.35 0.00 94 1007.9
20260507072004 47 206 0.0 0.0 0.00 0.35 0.00 94 1007.9
20260507071517 47 206 0.0 0.0 0.00 0.35 0.00 94 1008.1
20260507071005 47 207 0.0 0.0 0.00 0.35 0.00 94 1008.3
20260507070508 47 207 0.0 0.0 0.00 0.35 0.00 94 1007.9
20260507070020 47 205 0.0 2.0 0.00 0.35 0.00 94 1007.8
20260507065510 47 231 0.0 2.0 0.00 0.35 0.00 93 1007.8
20260507065009 48 243 0.0 0.0 0.00 0.35 0.00 94 1007.7
20260507064529 48 345 0.0 0.0 0.00 0.35 0.00 93 1007.4
20260507064011 47 339 0.0 0.0 0.00 0.35 0.00 93 1007.4
20260507063512 48 337 0.0 0.0 0.00 0.35 0.00 93 1007.6
20260507063027 48 336 0.0 0.0 0.00 0.35 0.00 93 1007.7
20260507062513 48 337 0.0 0.0 0.00 0.35 0.00 93 1007.6
20260507062012 48 336 0.0 0.0 0.00 0.35 0.00 92 1007.4
20260507061521 48 11 0.0 0.0 0.00 0.35 0.00 92 1007.6
20260507061010 48 22 0.0 0.0 0.00 0.35 0.00 92 1007.7
20260507060504 48 23 0.0 0.0 0.00 0.35 0.00 91 1007.5
20260507060018 48 23 0.0 0.0 0.00 0.35 0.00 91 1007.8
20260507055506 48 23 0.0 0.0 0.00 0.35 0.00 91 1007.9
20260507055008 48 23 0.0 0.0 0.00 0.35 0.00 91 1007.6
20260507054522 48 23 0.0 4.0 0.00 0.35 0.00 90 1007.9
20260507054006 48 357 0.0 4.0 0.00 0.35 0.00 90 1008.1
20260507053511 48 358 1.0 4.0 0.00 0.35 0.00 90 1008.2
20260507053032 48 346 1.0 4.0 0.00 0.35 0.00 90 1008.3
20260507052510 48 337 2.0 4.0 0.00 0.35 0.00 90 1008.2
20260507052003 48 351 2.0 4.0 0.00 0.35 0.00 90 1008.3
20260507051511 48 13 1.0 5.0 0.00 0.35 0.00 90 1008.4
20260507051005 48 1 3.0 5.0 0.00 0.35 0.00 91 1008.6
20260507050501 48 312 0.0 2.0 0.00 0.35 0.00 91 1008.7
20260507050003 48 342 0.0 2.0 0.00 0.35 0.00 91 1008.6
20260507045503 48 352 0.0 1.0 0.00 0.35 0.00 90 1008.5
20260507045003 49 352 0.0 2.0 0.00 0.35 0.00 90 1008.5
20260507044507 49 344 1.0 4.0 0.00 0.35 0.00 89 1008.7
20260507044002 49 351 1.0 4.0 0.00 0.35 0.00 90 1008.4
20260507043504 49 348 0.0 4.0 0.00 0.35 0.00 90 1008.2
20260507043006 49 331 1.0 5.0 0.00 0.35 0.00 90 1008.3
20260507042503 49 331 2.0 5.0 0.00 0.35 0.00 90 1008.3
20260507042003 49 332 1.0 4.0 0.00 0.35 0.00 89 1008.2
20260507041508 49 336 1.0 2.0 0.00 0.35 0.00 90 1008.1
20260507041002 49 59 0.0 3.0 0.00 0.35 0.00 90 1008.1
20260507040504 49 356 1.0 3.0 0.00 0.35 0.00 90 1008.2
20260507040013 49 347 0.0 4.0 0.00 0.35 0.00 90 1008.1
20260507035502 49 351 1.0 4.0 0.00 0.35 0.35 90 1008.2
20260507035005 49 13 1.0 3.0 0.00 0.35 0.35 91 1008.2
20260507034503 49 19 0.0 5.0 0.00 0.35 0.35 91 1008.3
20260507034001 49 326 0.0 5.0 0.00 0.35 0.35 91 1008.6
20260507033503 50 342 2.0 5.0 0.00 0.35 0.35 91 1008.3
20260507033003 50 347 1.0 5.0 0.00 0.35 0.35 92 1008.5
20260507032503 50 2 0.0 3.0 0.00 0.35 0.35 92 1008.3
20260507032002 50 352 0.0 4.0 0.00 0.35 0.35 91 1008.3
20260507031508 50 316 0.0 6.0 0.00 0.35 0.35 91 1008.2
20260507031005 50 325 1.0 6.0 0.00 0.35 0.35 91 1008.3
20260507030503 50 340 3.0 5.0 0.01 0.35 0.35 90 1008.1
20260507030013 50 333 3.0 7.0 0.02 0.35 0.35 90 1008.1
20260507025505 51 342 3.0 7.0 0.05 0.35 0.35 90 1008.2
20260507025007 51 327 3.0 6.0 0.06 0.35 0.35 90 1008.1
20260507024518 51 326 2.0 6.0 0.06 0.35 0.35 90 1007.9
20260507024009 51 336 2.0 9.0 0.06 0.35 0.35 90 1007.8
20260507023502 52 315 2.0 9.0 0.06 0.35 0.35 90 1007.9
20260507023003 52 349 3.0 8.0 0.06 0.35 0.35 91 1008.0
20260507022503 53 6 3.0 8.0 0.06 0.35 0.35 91 1008.0
20260507022004 53 342 4.0 8.0 0.06 0.35 0.35 92 1007.8
20260507021503 54 357 2.0 5.0 0.06 0.35 0.35 92 1007.8
20260507021003 54 331 0.0 5.0 0.06 0.35 0.35 92 1007.6
20260507020503 55 32 1.0 5.0 0.05 0.34 0.34 92 1007.5
20260507020010 55 347 3.0 5.0 0.04 0.33 0.33 92 1007.5
20260507015503 55 345 0.0 2.0 0.01 0.30 0.30 92 1007.6
20260507015003 55 242 0.0 1.0 0.00 0.29 0.29 93 1007.5
20260507014520 55 243 0.0 3.0 0.01 0.29 0.29 93 1007.1
20260507014007 56 243 0.0 3.0 0.01 0.29 0.29 93 1007.0
20260507013506 56 240 2.0 3.0 0.01 0.29 0.29 93 1006.9
20260507013021 56 236 0.0 2.0 0.01 0.29 0.29 93 1006.8
20260507012506 56 243 0.0 3.0 0.01 0.29 0.29 93 1006.8
20260507012004 57 206 1.0 3.0 0.03 0.29 0.29 92 1006.6
20260507011505 57 229 0.0 2.0 0.04 0.29 0.29 92 1006.5
20260507011004 57 187 0.0 1.0 0.05 0.29 0.29 92 1006.3
20260507010503 58 108 0.0 2.0 0.05 0.29 0.29 92 1006.2
20260507010024 58 248 0.0 2.0 0.05 0.29 0.29 91 1006.2
20260507005507 58 226 1.0 2.0 0.05 0.29 0.29 91 1006.1
20260507005003 58 79 0.0 2.0 0.05 0.29 0.29 91 1006.2
20260507004512 58 216 0.0 2.0 0.04 0.28 0.28 92 1006.3
20260507004005 58 131 0.0 2.0 0.04 0.28 0.28 92 1006.0
20260507003507 59 41 0.0 2.0 0.04 0.28 0.28 93 1006.0
20260507003014 59 231 0.0 4.0 0.04 0.28 0.28 93 1006.2
20260507002508 59 266 0.0 7.0 0.04 0.28 0.28 93 1006.1
20260507002009 59 227 0.0 7.0 0.02 0.26 0.26 93 1005.9
20260507001523 59 257 1.0 6.0 0.01 0.25 0.25 93 1005.7
20260507001006 59 252 3.0 8.0 0.00 0.24 0.24 92 1005.4
20260507000508 59 240 2.0 9.0 0.00 0.24 0.24 92 1005.2
20260507000004 59 184 5.0 9.0 0.00 0.24 0.24 92 1005.1
20260506235504 59 149 5.0 8.0 0.00 0.24 0.24 92 1005.1
20260506235004 59 207 4.0 9.0 0.00 0.24 0.24 92 1004.9
20260506234508 59 186 5.0 9.0 0.00 0.24 0.24 92 1004.9
20260506234005 59 208 6.0 8.0 0.00 0.24 0.24 91 1005.0
20260506233503 59 204 4.0 9.0 0.01 0.25 0.24 92 1005.0
20260506233013 59 167 5.0 9.0 0.01 0.25 0.24 91 1005.0
20260506232506 59 200 4.0 8.0 0.01 0.25 0.24 91 1004.9
20260506232008 59 248 4.0 8.0 0.01 0.25 0.24 92 1004.9
20260506231516 59 204 4.0 8.0 0.01 0.25 0.24 92 1004.9
20260506231007 59 175 4.0 7.0 0.01 0.25 0.24 92 1004.8
20260506230507 59 148 3.0 7.0 0.01 0.25 0.24 92 1004.8
20260506230024 59 155 2.0 7.0 0.01 0.25 0.24 92 1004.8
20260506225510 59 190 3.0 8.0 0.01 0.25 0.24 92 1004.8
20260506225008 59 154 5.0 10.0 0.01 0.25 0.24 92 1004.9
20260506224516 59 146 6.0 10.0 0.01 0.25 0.24 92 1004.8
20260506224004 59 182 3.0 8.0 0.01 0.25 0.24 92 1004.8
20260506223506 59 159 4.0 9.0 0.00 0.24 0.23 92 1004.8
20260506223009 59 188 3.0 10.0 0.00 0.24 0.23 92 1004.8
20260506222505 60 178 4.0 10.0 0.00 0.24 0.23 91 1004.8
20260506222005 60 166 5.0 9.0 0.00 0.24 0.23 91 1004.8
20260506221512 60 172 4.0 9.0 0.00 0.24 0.23 91 1004.9
20260506221007 60 203 4.0 12.0 0.00 0.24 0.23 91 1004.9
20260506220508 60 129 4.0 14.0 0.00 0.24 0.23 90 1004.9
20260506220032 60 214 7.0 14.0 0.00 0.24 0.23 90 1005.0
20260506215508 60 163 4.0 11.0 0.00 0.24 0.23 90 1004.9
20260506215006 60 136 7.0 10.0 0.00 0.24 0.23 90 1004.9
20260506214524 60 233 5.0 11.0 0.00 0.24 0.23 91 1004.9
20260506214010 60 162 3.0 11.0 0.00 0.24 0.23 91 1004.9
20260506213511 60 120 5.0 11.0 0.00 0.24 0.23 91 1004.9
20260506213007 60 193 5.0 13.0 0.00 0.24 0.23 90 1004.9
20260506212505 60 207 9.0 13.0 0.00 0.24 0.23 90 1005.0
20260506212005 60 198 6.0 13.0 0.00 0.24 0.23 90 1005.0
20260506211518 60 199 3.0 13.0 0.00 0.24 0.23 90 1004.9
20260506211004 60 133 5.0 14.0 0.00 0.24 0.23 90 1005.0
20260506210506 60 119 7.0 16.0 0.00 0.24 0.23 90 1004.9
20260506210017 60 209 7.0 16.0 0.00 0.24 0.23 90 1004.8
20260506205507 60 239 8.0 13.0 0.00 0.24 0.23 90 1004.8
20260506205010 60 207 4.0 11.0 0.00 0.24 0.23 90 1004.9
20260506204522 60 185 5.0 15.0 0.00 0.24 0.23 90 1004.9
20260506204008 60 174 7.0 15.0 0.00 0.24 0.23 90 1005.0
20260506203515 60 236 6.0 14.0 0.00 0.24 0.23 91 1005.1
20260506203025 60 191 5.0 13.0 0.01 0.24 0.23 91 1005.1
20260506202509 60 219 5.0 12.0 0.01 0.24 0.23 91 1005.2
20260506202004 60 228 6.0 12.0 0.02 0.24 0.23 91 1005.2
20260506201506 60 184 8.0 12.0 0.02 0.24 0.23 91 1005.3
20260506201005 60 205 5.0 15.0 0.02 0.24 0.23 91 1005.2
20260506200504 60 203 7.0 15.0 0.03 0.24 0.23 91 1005.3
20260506200012 60 154 7.0 15.0 0.03 0.24 0.23 91 1005.4
20260506195502 60 215 7.0 14.0 0.04 0.24 0.23 91 1005.4
20260506195004 60 148 5.0 13.0 0.04 0.24 0.23 91 1005.6
20260506194504 60 222 8.0 17.0 0.04 0.24 0.23 91 1005.6
20260506194006 60 195 7.0 17.0 0.05 0.24 0.23 91 1005.6
20260506193502 60 237 7.0 17.0 0.06 0.24 0.23 91 1005.7
20260506193005 60 188 9.0 18.0 0.06 0.23 0.22 90 1005.7
20260506192504 60 229 10.0 18.0 0.07 0.23 0.22 90 1005.8
20260506192004 61 203 6.0 16.0 0.06 0.22 0.21 90 1005.8
20260506191506 61 218 9.0 16.0 0.06 0.22 0.21 90 1005.7
20260506191004 61 207 8.0 14.0 0.07 0.22 0.21 90 1005.7
20260506190505 61 176 6.0 12.0 0.06 0.21 0.20 90 1005.6
20260506190007 61 162 6.0 14.0 0.06 0.21 0.20 90 1005.7
20260506185504 61 193 8.0 14.0 0.06 0.20 0.19 90 1005.8
20260506185003 61 205 7.0 11.0 0.07 0.20 0.19 90 1005.8
20260506184516 61 150 6.0 9.0 0.08 0.20 0.19 91 1005.8
20260506184002 61 127 5.0 7.0 0.08 0.19 0.18 91 1005.8
20260506183504 62 194 4.0 6.0 0.08 0.18 0.17 91 1005.8
20260506183003 62 179 3.0 5.0 0.08 0.17 0.16 91 1005.9
20260506182503 62 175 2.0 4.0 0.08 0.16 0.15 91 1006.0
20260506182003 62 251 1.0 3.0 0.09 0.16 0.15 91 1006.0
20260506181508 62 145 0.0 0.0 0.10 0.16 0.15 91 1005.9
20260506181004 61 130 0.0 1.0 0.10 0.15 0.14 91 1005.9
20260506180504 61 153 0.0 1.0 0.11 0.15 0.14 91 1006.2
20260506180011 61 153 0.0 1.0 0.12 0.15 0.14 90 1006.4
20260506175505 61 202 1.0 1.0 0.12 0.14 0.13 90 1006.5
20260506175004 61 171 0.0 3.0 0.11 0.13 0.12 90 1006.6
20260506174511 61 172 0.0 3.0 0.10 0.12 0.11 90 1006.6
20260506174004 61 162 1.0 3.0 0.09 0.11 0.10 89 1006.7
20260506173507 62 207 1.0 3.0 0.09 0.10 0.09 89 1006.8
20260506173020 62 203 0.0 5.0 0.08 0.09 0.08 89 1006.8
20260506172507 62 161 2.0 5.0 0.07 0.08 0.07 88 1006.9
20260506172004 62 179 0.0 3.0 0.06 0.07 0.06 87 1006.9
20260506171507 62 210 2.0 6.0 0.05 0.06 0.05 86 1007.0
20260506171006 62 218 1.0 6.0 0.04 0.05 0.04 86 1007.1
20260506170502 62 183 2.0 6.0 0.03 0.04 0.03 84 1007.0
20260506170008 63 202 3.0 6.0 0.02 0.03 0.02 84 1007.2
20260506165503 63 242 2.0 7.0 0.01 0.02 0.01 83 1007.1
20260506165004 63 220 4.0 10.0 0.01 0.02 0.01 82 1007.0
20260506164513 63 195 4.0 10.0 0.01 0.02 0.01 82 1007.0
20260506164003 64 229 3.0 9.0 0.01 0.02 0.01 81 1007.1
20260506163506 64 156 3.0 9.0 0.00 0.01 0.00 80 1007.1
20260506163015 64 233 4.0 9.0 0.00 0.01 0.00 80 1007.1
20260506162506 64 221 3.0 8.0 0.00 0.01 0.00 80 1007.1
20260506162009 64 216 6.0 10.0 0.00 0.01 0.00 79 1007.1
20260506161518 64 198 4.0 14.0 0.00 0.01 0.00 78 1007.2
20260506160505 64 228 7.0 13.0 0.00 0.01 0.00 77 1007.3
20260506160004 64 203 6.0 12.0 0.00 0.01 0.00 78 1007.4
20260506155503 64 240 5.0 13.0 0.00 0.01 0.00 78 1007.5
20260506155004 64 200 4.0 14.0 0.00 0.01 0.00 78 1007.5
20260506154516 64 208 7.0 14.0 0.00 0.01 0.00 79 1007.8
20260506154006 64 208 7.0 13.0 0.00 0.01 0.00 78 1007.7
20260506153504 64 214 7.0 14.0 0.00 0.01 0.00 78 1007.9
20260506153011 64 202 5.0 14.0 0.00 0.01 0.00 79 1008.0
20260506152507 64 154 7.0 14.0 0.00 0.01 0.00 78 1008.1
20260506152012 64 183 7.0 17.0 0.00 0.01 0.00 78 1008.2
20260506151517 63 177 7.0 17.0 0.00 0.01 0.00 79 1008.2
20260506151008 64 212 7.0 17.0 0.00 0.01 0.00 78 1008.1
20260506150508 64 194 5.0 10.0 0.00 0.01 0.00 79 1008.2
20260506150021 63 219 4.0 13.0 0.00 0.01 0.00 79 1008.2
20260506145005 63 184 8.0 11.0 0.00 0.01 0.00 78 1008.3
20260506144505 63 214 5.0 13.0 0.00 0.01 0.00 79 1008.2
20260506144006 63 198 6.0 13.0 0.00 0.01 0.00 78 1008.3
20260506143503 63 195 6.0 13.0 0.00 0.01 0.00 79 1008.4
20260506143009 63 219 6.0 13.0 0.00 0.01 0.00 79 1008.3
20260506142504 63 230 4.0 13.0 0.00 0.01 0.00 79 1008.1
20260506142008 63 182 5.0 12.0 0.00 0.01 0.00 78 1007.9
20260506141516 63 205 7.0 12.0 0.00 0.01 0.00 78 1008.1
20260506141009 64 245 7.0 11.0 0.00 0.01 0.00 79 1008.3
20260506140018 63 195 4.0 11.0 0.00 0.01 0.00 79 1008.2